Regional Weather Roundup
Issued by NWS Grand Forks, ND

Home | Current Version | Previous Version | Graphics & Text | Print | Product List | Glossary On
Versions: 1 2 3 4 5 6 7 8 9 10 11 12 13 14 15 16 17 18 19 20 21 22 23 24 25 26 27 28 29 30 31 32 33 34 35 36 37 38 39 40 41 42 43 44 45 46 47 48 49 50
000
ASUS43 KFGF 291731
RWRFGF
PRAIRIE TO PINES  WEATHER ROUNDUP
NATIONAL WEATHER SERVICE EASTERN NORTH DAKOTA/GRAND FORKS ND
1200 PM CDT FRI MAY 29 2015

 **SATELLITE DATA USED TO AUGMENT SKY COVER AT AUTOMATED STATIONS**
 *****  WEATHER ACROSS EASTERN NORTH DAKOTA  *****

CITY           SKY/WX    TMP DP  RH WIND       PRES   REMARKS
GRAND FORKS    CLOUDY    46  37  71 N25G32    30.17R
GRAND FRKS AFB CLOUDY    47  35  63 N26G33    30.18R
GRAND FRKS NWS   N/A     45 N/A N/A N21         N/A
DEVILS LAKE    CLOUDY    50  32  50 N23       30.21S
FARGO          CLOUDY    47  40  76 N21G32    30.13R
WAHPETON ARPT  CLOUDY    45  41  87 N20G32    30.09R
$$

 ***** WEATHER ACROSS CENTRAL AND WESTERN NORTH DAKOTA  *****

CITY           SKY/WX    TMP DP  RH WIND       PRES   REMARKS
BISMARCK       CLOUDY    52  34  50 N16G23    30.24R
MINOT          CLOUDY    45  34  65 NW15      30.29R
JAMESTOWN      CLOUDY    49  38  65 N25G35    30.17R
MINOT AFB      CLOUDY    47  40  75 N13       30.29R
GARRISON         N/A     47  34  60 N15G21    30.28R
WILLISTON      CLOUDY    49  33  54 N13       30.33S
DICKINSON      CLOUDY    49  33  54 N15G24    30.27R
HETTINGER      PTSUNNY   50  36  58 N15G24    30.28R
$$

 *****  OTHER AIRPORT OBSERVATIONS IN OUR AREA  *****

CITY           SKY/WX    TMP DP  RH WIND       PRES   REMARKS
WALHALLA         N/A     48  36  61 MISG      30.23R
GRAFTON AIRPOR FAIR      46  37  71 N24G36    30.20S
VALLEY CITY AR CLOUDY    50  41  71 NE18G26   30.16S
CANDO          CLOUDY    46  36  66 N18G26    30.26R
CAVALIER APRT  NOT AVBL
GWINNER        NOT AVBL
SHEYENNE NWR     N/A     47  40  77 N15       29.95S
ROLLA          CLOUDY    45  36  70 N18G25    30.26R
 ***** THE ABOVE OBSERVATIONS ARE NON NWS ARE NOT QUALITY
       CONTROLLED AND MAY MIS-REPORT RAIN FOR SNOW...
$$

  *****  WEATHER ACROSS NORTHERN MINNESOTA  *****

CITY           SKY/WX    TMP DP  RH WIND       PRES   REMARKS
FLAG ISLAND    CLOUDY    46  39  76 N26       30.09R
WARROAD        PTSUNNY   48  41  76 NW17G25   30.12R
ROSEAU         CLOUDY    46  39  76 NW20G28   30.13R
HALLOCK        CLOUDY    46  37  71 N23G31    30.19R
THF RVR FALLS  CLOUDY    46  37  71 N21       30.14R
BAUDETTE       CLOUDY    49  41  74 NW20G26   30.07R
WASKISH        CLOUDY    48  43  81 NW14G20   30.07S
CROOKSTON      CLOUDY    46  39  76 N24G30    30.16R
STEPHEN NDAWN    N/A     45  37  76 N20         N/A
GREENBUSH NDAW   N/A     45  39  81 N17         N/A
$$
  *****  WEATHER ACROSS CENTRAL AND WEST MINNESOTA  *****

CITY           SKY/WX    TMP DP  RH WIND       PRES   REMARKS
FOSSTON        CLOUDY    46  43  87 N20G25    30.11S
BEMIDJI        CLOUDY    47  44  87 N14G21    30.06R
PARK RAPIDS    CLOUDY    52  47  83 N14       30.02R
ELBOW LAKE     CLOUDY    51  50  98 N18G25    30.02R
WADENA         CLOUDY    52  48  87 N17       30.01R
DETROIT LAKES  CLOUDY    46  45  93 N17G28    30.08R
MOORHEAD       CLOUDY    46  41  81 N26G36    30.12R
FERGUS FALLS   CLOUDY    52  48  87 N20G26    30.05S
MORRIS MN      CLOUDY    54  52  94 N21G29    29.99R
STAPLES        CLOUDY    55  54  94 N16       29.99R FOG
$$
  *****  WEATHER ELSEWHERE ACROSS MINNESOTA  *****

CITY           SKY/WX    TMP DP  RH WIND       PRES   REMARKS
DULUTH         CLOUDY    66  57  72 NW13      29.90R
INTRNTL FALLS  CLOUDY    51  44  77 N17       30.02R
ELY            NOT AVBL
CLOQUET        CLOUDY    64  55  72 NW12G17   29.92R
WHEATON        DRIZZLE   45  45 100 NW24G35   30.08R
BRAINERD       LGT RAIN  59  56  89 N13       29.96R FOG
HIBBING        LGT RAIN  58  56  93 N13       29.94R
ALEXANDRIA     LGT RAIN  58  56  93 N15G22    29.98R
SAINT CLOUD    LGT RAIN  65  60  84 N8        29.91R
MINNEAPOLIS    CLOUDY    71  63  75 SW9       29.89S
$$

  *****  WEATHER ACROSS SOUTH DAKOTA  *****

CITY           SKY/WX    TMP DP  RH WIND       PRES   REMARKS
SIOUX FALLS    CLOUDY    70  63  78 NE5       29.90S
BROOKINGS      CLOUDY    52  48  87 N16G28    30.00R
WATERTOWN      CLOUDY    49  46  90 N21G29    30.03R
HURON            N/A    N/A N/A N/A MISG      30.03R
SISSETON         N/A     49  47  93 N29G38    30.06R
ABERDEEN       CLOUDY    51  45  79 N24G33    30.13R
MITCHELL       LGT RAIN  59  56  89 N23G33    29.97R
PIERRE         LGT RAIN  50  48  93 N28       30.12R
MOBRIDGE       CLOUDY    52  45  77 N18G28    30.17R
RAPID CITY     CLOUDY    47  45  93 N24G33    30.23R
$$

  *****  SOME WEATHER IN NEARBY STATES *****

CITY           SKY/WX    TMP DP  RH WIND       PRES   REMARKS
GLASGOW MT     MOSUNNY   50  33  52 NE6       30.35S
GREAT FALLS MT CLOUDY    52  45  77 VRB6      30.25F
CHEYENNE WY    PTSUNNY   56  39  53 N17G25    30.22S
SCOTTSBLUFF NE RAIN      53  52  96 NW6       30.18R FOG
OMAHA NE       CLOUDY    73  61  65 S12       29.92S
DES MOINES IA  CLOUDY    73  65  75 S9        29.94R
DAVENPORT IA   PTSUNNY   73  66  78 S13       29.96F
CHICAGO IL     LGT RAIN  71  66  84 S9        30.02R
EAU CLAIRE WI  CLOUDY    70  64  81 SW7       29.89F
LA CROSSE WI   CLOUDY    76  64  66 S9        29.91S
$$

  *****  SOME NATIONAL WEATHER *****

CITY           SKY/WX    TMP DP  RH WIND       PRES   REMARKS
LA GUARDIA NY  MOSUNNY   78  54  43 NE8       30.27F
RALEIGH NC     MOSUNNY   83  68  60 CALM      30.25F
ATLANTA GA     PTSUNNY   79  64  60 S5        30.24F
NEW ORLEANS LA LGT RAIN  84  73  69 SE14      30.08S HX  90
OKLAHOMA CITY  CLOUDY    71  62  73 VRB3      29.98R
ALBUQUERQUE NM PTSUNNY   73  36  25 N7        30.18S
SALT LAKE CITY MOSUNNY   67  41  38 VRB5      30.20S
LOS ANGELES CA PTSUNNY   64  57  77 CALM      29.96F HAZE
BOISE ID       SUNNY     76  43  30 SE15G23   30.10F
SEATTLE WA     PTSUNNY   64  54  69 S7        30.00S
$$

*** WEATHER ACROSS MANITOBA...SASKATCHEWAN AND ONTARIO ***
                ***ONTARIO***

CITY           SKY/WX    TMP DP  RH WIND       PRES   REMARKS
GERALDTON      LGT RAIN  61  57  88 W6        29.83R
THUNDER BAY    LGT RAIN  52  52 100 E3        29.84S FOG
SIOUX LOOKOUT  DRIZZLE   48  46  93 NW8G17    29.98R
TORONTO        CLOUDY    77  54  44 SE10      30.20R
BIG TROUT LK   LGT RAIN  37  37 100 E5        30.03  FOG
PICKLE LAKE    CLOUDY    50  45  81 N7        29.93R
DRYDEN         CLOUDY    46  43  87 NW8G18    30.01R
KENORA         PTSUNNY   45  37  76 N17G26    30.08R
$$
                *** MANITOBA***

CITY           SKY/WX    TMP DP  RH WIND       PRES   REMARKS
BRANDON        MOSUNNY   50  30  46 N14G24    30.29R
DAUPHIN        CLOUDY    43  32  65 N15G21    30.34R
ISLAND LAKE    CLOUDY    32  28  86 N14G30    30.22R WCI  22
PILOT MOUND      N/A     43  36  75 N17G24      N/A
THE PAS        CLOUDY    39  21  48 N10G17    30.40S
THOMPSON       FLURRIES  32  23  69 N15       30.38R WCI  22
WINNIPEG       PTSUNNY   46  36  66 N22G30    30.23R
LYNN LAKE      LGT RAIN  34  19  55 N8G18     30.42S
CHURCHILL      CLOUDY    28  21  74 N16       30.43R WCI  17
GILLAM         SNOW      27  23  86 NE23      30.33R VSB 3/8 WCI  12
$$
                ***SASKATCHEWAN***

CITY           SKY/WX    TMP DP  RH WIND       PRES   REMARKS
ESTEVAN        CLOUDY    46  32  57 N8        30.33S
KINDERSLEY     PTSUNNY   50  30  46 S6        30.35S
LLOYDMINSTER   MOSUNNY   52  23  32 VRB10     30.36F
PRINCE ALBERT  PTSUNNY   46  25  42 VRB6      30.43S
REGINA         MOSUNNY   50  28  43 NW10G17   30.37S
YORKTON        MOSUNNY   45  28  53 N9G20     30.36R
N. BATTLEFORD  SUNNY     50  27  40 S3        30.41F
LA RONGE       MOSUNNY   43  18  36 NE8       30.45F
SASKATOON      MOSUNNY   48  23  37 VRB8      30.42F
SWIFT CURRENT  SUNNY     48  30  49 E10       30.34F
$$
NOTE: THESE ARE AUTOMATED STATIONS WITH LIMITED QUALITY CONTROL
      "FAIR" INDICATES FEW OR NO CLOUDS BELOW 12,000 FEET WITH NO
      SIGNIFICANT WEATHER AND/OR OBSTRUCTIONS TO VISIBILITY.
      SKY/WX - SKY CONDITION AND SIGNIFICANT WEATHER.
      TMP - AIR TEMPERATURE.    DP   - DEWPOINT TEMPERATURE.
      RH  - RELATIVE HUMIDITY.  PRES - PRESSURE.
      HX  - HEAT INDEX.         WCI  - WIND CHILL INDEX.
$


USA.gov is the U.S. government's official web portal to all federal, state and local government web resources and services.